User: anonymous   Login
Location: Unspecified
(0.0000°N, 0.0000°E)
Time: 20:15:22
(UTC+00:00)
Language:

STARLINK-5746 - Orbit

View from above orbital plane
View from above orbital plane
View from above satellite
View from above satellite

Ground track
Ground track

The orbit is defined by the following mean orbital elements,

1 56926U          26145.61960360 +.00000000 +00000-0 -16656-4 0 00009
2 56926  43.0047 356.2111 0001480 253.3184 106.7505 15.27576913    06
Epoch (UTC): 25 May 2026 14:52:13
Eccentricity: 0.0001480
inclination: 43.0047°
perigee height: 482 km
apogee height: 484 km
right ascension of ascending node: 356.2111°
argument of perigee: 253.3184°
revolutions per day: 15.27576913
mean anomaly at epoch: 106.7505°

The dashed part of the orbit path shows where the satellite is in the earth's shadow,  

DLR